| time (UTC) | temp C | wind direction | speed KPH | gust KPH | rain 1hr cm | rain 24hr cm | rain mn cm | humidity % | barometer mb |
| 20260505140513 | 21 | 0 | 3.2 | 14.5 | 0.00 | 0.00 | 0.00 | 64 | 1017.8 |
| 20260505125014 | 18 | 179 | 0.0 | 4.8 | 0.00 | 0.00 | 0.00 | 74 | 1017.9 |
| 20260505124532 | 17 | 0 | 0.0 | 8.0 | 0.00 | 0.00 | 0.00 | 76 | 1017.8 |
| 20260505124009 | 17 | 0 | 1.6 | 9.7 | 0.00 | 0.00 | 0.00 | 80 | 1017.9 |
| 20260505123514 | 16 | 0 | 1.6 | 9.7 | 0.00 | 0.00 | 0.00 | 82 | 1017.8 |
| 20260505123045 | 15 | 0 | 0.0 | 6.4 | 0.00 | 0.00 | 0.00 | 84 | 1017.9 |
| 20260505122511 | 15 | 209 | 0.0 | 4.8 | 0.00 | 0.00 | 0.00 | 86 | 1017.9 |
| 20260505122013 | 14 | 0 | 0.0 | 1.6 | 0.00 | 0.00 | 0.00 | 88 | 1017.9 |
| 20260505121529 | 13 | 0 | 0.0 | 3.2 | 0.00 | 0.00 | 0.00 | 89 | 1017.8 |
| 20260505121011 | 13 | 0 | 0.0 | 6.4 | 0.00 | 0.00 | 0.00 | 89 | 1017.8 |
| 20260505120509 | 12 | 188 | 0.0 | 6.4 | 0.00 | 0.00 | 0.00 | 89 | 1017.8 |
| 20260505120037 | 12 | 171 | 0.0 | 3.2 | 0.00 | 0.00 | 0.00 | 89 | 1017.8 |
| 20260505115510 | 12 | 0 | 0.0 | 1.6 | 0.00 | 0.00 | 0.00 | 90 | 1017.8 |
| 20260505115008 | 11 | 0 | 0.0 | 0.0 | 0.00 | 0.00 | 0.00 | 89 | 1018.0 |
| 20260505114531 | 11 | 0 | 0.0 | 0.0 | 0.00 | 0.00 | 0.00 | 88 | 1017.7 |
| 20260505114012 | 11 | 0 | 0.0 | 1.6 | 0.00 | 0.00 | 0.00 | 88 | 1017.7 |
| 20260505113513 | 11 | 0 | 0.0 | 3.2 | 0.00 | 0.00 | 0.00 | 88 | 1017.7 |
| 20260505113030 | 10 | 0 | 0.0 | 3.2 | 0.00 | 0.00 | 0.00 | 87 | 1017.6 |
| 20260505112512 | 10 | 0 | 0.0 | 3.2 | 0.00 | 0.00 | 0.00 | 87 | 1017.5 |
| 20260505112011 | 10 | 0 | 0.0 | 3.2 | 0.00 | 0.00 | 0.00 | 87 | 1017.5 |
| 20260505111535 | 10 | 0 | 0.0 | 1.6 | 0.00 | 0.00 | 0.00 | 86 | 1017.5 |
| 20260505111011 | 10 | 0 | 0.0 | 0.0 | 0.00 | 0.00 | 0.00 | 86 | 1017.4 |
| 20260505110512 | 10 | 0 | 0.0 | 0.0 | 0.00 | 0.00 | 0.00 | 86 | 1017.4 |
| 20260505102012 | 10 | 0 | 0.0 | 0.0 | 0.00 | 0.00 | 0.00 | 84 | 1016.8 |
| 20260505101528 | 10 | 0 | 0.0 | 0.0 | 0.00 | 0.00 | 0.00 | 84 | 1016.8 |
| 20260505101011 | 11 | 0 | 0.0 | 0.0 | 0.00 | 0.00 | 0.00 | 84 | 1016.7 |
| 20260505100512 | 11 | 0 | 0.0 | 0.0 | 0.00 | 0.00 | 0.00 | 84 | 1016.6 |
| 20260505100032 | 11 | 0 | 0.0 | 0.0 | 0.00 | 0.00 | 0.00 | 83 | 1016.6 |
| 20260505095512 | 11 | 0 | 0.0 | 0.0 | 0.00 | 0.00 | 0.00 | 83 | 1016.6 |
| 20260505095016 | 11 | 0 | 0.0 | 0.0 | 0.00 | 0.00 | 0.00 | 83 | 1016.6 |
| 20260505094532 | 11 | 0 | 0.0 | 0.0 | 0.00 | 0.00 | 0.00 | 82 | 1016.5 |
| 20260505094008 | 11 | 0 | 0.0 | 0.0 | 0.00 | 0.00 | 0.00 | 82 | 1016.5 |
| 20260505093511 | 11 | 0 | 0.0 | 0.0 | 0.00 | 0.00 | 0.00 | 82 | 1016.6 |
| 20260505093031 | 11 | 0 | 0.0 | 0.0 | 0.00 | 0.00 | 0.00 | 82 | 1016.5 |
| 20260505092511 | 11 | 0 | 0.0 | 0.0 | 0.00 | 0.00 | 0.00 | 81 | 1016.5 |
| 20260505092011 | 11 | 0 | 0.0 | 0.0 | 0.00 | 0.00 | 0.00 | 81 | 1016.5 |
| 20260505091528 | 11 | 0 | 0.0 | 0.0 | 0.00 | 0.00 | 0.00 | 81 | 1016.4 |
| 20260505091010 | 11 | 0 | 0.0 | 0.0 | 0.00 | 0.00 | 0.00 | 81 | 1016.4 |
| 20260505090509 | 11 | 0 | 0.0 | 0.0 | 0.00 | 0.00 | 0.00 | 81 | 1016.5 |
| 20260505090028 | 11 | 0 | 0.0 | 0.0 | 0.00 | 0.00 | 0.00 | 81 | 1016.5 |
| 20260505085511 | 11 | 0 | 0.0 | 0.0 | 0.00 | 0.00 | 0.00 | 80 | 1016.4 |
| 20260505085011 | 12 | 0 | 0.0 | 0.0 | 0.00 | 0.00 | 0.00 | 80 | 1016.4 |
| 20260505084531 | 12 | 0 | 0.0 | 0.0 | 0.00 | 0.00 | 0.00 | 80 | 1016.3 |
| 20260505084011 | 12 | 0 | 0.0 | 0.0 | 0.00 | 0.00 | 0.00 | 79 | 1016.3 |
| 20260505083514 | 12 | 0 | 0.0 | 0.0 | 0.00 | 0.00 | 0.00 | 79 | 1016.2 |
| 20260505083032 | 12 | 0 | 0.0 | 0.0 | 0.00 | 0.00 | 0.00 | 79 | 1016.3 |
| 20260505082515 | 12 | 0 | 0.0 | 0.0 | 0.00 | 0.00 | 0.00 | 79 | 1016.4 |
| 20260505082012 | 12 | 0 | 0.0 | 0.0 | 0.00 | 0.00 | 0.00 | 78 | 1016.3 |
| 20260505081532 | 12 | 0 | 0.0 | 0.0 | 0.00 | 0.00 | 0.00 | 78 | 1016.2 |
| 20260505081013 | 12 | 0 | 0.0 | 0.0 | 0.00 | 0.00 | 0.00 | 78 | 1016.2 |
| 20260505080517 | 12 | 0 | 0.0 | 0.0 | 0.00 | 0.00 | 0.00 | 78 | 1016.1 |
| 20260505080029 | 12 | 0 | 0.0 | 0.0 | 0.00 | 0.00 | 0.00 | 77 | 1016.1 |
| 20260505075513 | 13 | 0 | 0.0 | 0.0 | 0.00 | 0.00 | 0.00 | 77 | 1016.1 |
| 20260505075013 | 13 | 0 | 0.0 | 0.0 | 0.00 | 0.00 | 0.00 | 76 | 1016.0 |
| 20260505074534 | 13 | 0 | 0.0 | 0.0 | 0.00 | 0.00 | 0.00 | 76 | 1015.9 |
| 20260505074011 | 13 | 0 | 0.0 | 0.0 | 0.00 | 0.00 | 0.00 | 76 | 1016.0 |
| 20260505073514 | 13 | 0 | 0.0 | 0.0 | 0.00 | 0.00 | 0.00 | 75 | 1016.0 |
| 20260505073030 | 13 | 0 | 0.0 | 0.0 | 0.00 | 0.00 | 0.00 | 75 | 1015.9 |
| 20260505072511 | 13 | 0 | 0.0 | 0.0 | 0.00 | 0.00 | 0.00 | 74 | 1016.0 |
| 20260505072011 | 13 | 0 | 0.0 | 0.0 | 0.00 | 0.00 | 0.00 | 75 | 1016.0 |
| 20260505071532 | 13 | 0 | 0.0 | 0.0 | 0.00 | 0.00 | 0.00 | 74 | 1015.9 |
| 20260505071010 | 13 | 0 | 0.0 | 0.0 | 0.00 | 0.00 | 0.00 | 74 | 1015.9 |
| 20260505070512 | 14 | 0 | 0.0 | 0.0 | 0.00 | 0.00 | 0.00 | 74 | 1016.0 |
| 20260505070030 | 14 | 0 | 0.0 | 0.0 | 0.00 | 0.00 | 0.00 | 74 | 1016.0 |
| 20260505065512 | 14 | 0 | 0.0 | 0.0 | 0.00 | 0.00 | 0.00 | 74 | 1016.0 |
| 20260505065012 | 14 | 0 | 0.0 | 0.0 | 0.00 | 0.00 | 0.00 | 73 | 1015.9 |
| 20260505064534 | 15 | 0 | 0.0 | 4.8 | 0.00 | 0.00 | 0.00 | 74 | 1016.0 |
| 20260505064012 | 15 | 0 | 0.0 | 4.8 | 0.00 | 0.00 | 0.00 | 73 | 1016.0 |
| 20260505063511 | 15 | 0 | 0.0 | 4.8 | 0.00 | 0.00 | 0.00 | 73 | 1015.9 |
| 20260505063029 | 15 | 0 | 0.0 | 4.8 | 0.00 | 0.00 | 0.00 | 73 | 1015.9 |
| 20260505062511 | 15 | 0 | 0.0 | 8.0 | 0.00 | 0.00 | 0.00 | 73 | 1016.0 |
| 20260505062014 | 15 | 0 | 0.0 | 8.0 | 0.00 | 0.00 | 0.00 | 72 | 1015.9 |
| 20260505061532 | 15 | 151 | 1.6 | 8.0 | 0.00 | 0.00 | 0.00 | 72 | 1015.9 |
| 20260505061012 | 15 | 0 | 1.6 | 6.4 | 0.00 | 0.00 | 0.00 | 72 | 1016.0 |
| 20260505060511 | 15 | 0 | 1.6 | 6.4 | 0.00 | 0.00 | 0.00 | 72 | 1016.0 |
| 20260505060030 | 15 | 187 | 1.6 | 9.7 | 0.00 | 0.00 | 0.00 | 72 | 1015.9 |
| 20260505055512 | 15 | 177 | 1.6 | 9.7 | 0.00 | 0.00 | 0.00 | 71 | 1016.0 |
| 20260505055015 | 15 | 167 | 0.0 | 6.4 | 0.00 | 0.00 | 0.00 | 71 | 1016.0 |
| 20260505054544 | 15 | 184 | 1.6 | 8.0 | 0.00 | 0.00 | 0.00 | 71 | 1016.0 |
| 20260505054016 | 15 | 192 | 0.0 | 9.7 | 0.00 | 0.00 | 0.00 | 71 | 1016.0 |
| 20260505053518 | 15 | 167 | 3.2 | 9.7 | 0.00 | 0.00 | 0.00 | 71 | 1016.1 |
| 20260505053029 | 16 | 176 | 1.6 | 8.0 | 0.00 | 0.00 | 0.00 | 71 | 1016.1 |
| 20260505052510 | 16 | 221 | 0.0 | 9.7 | 0.00 | 0.00 | 0.00 | 70 | 1016.2 |
| 20260505052030 | 16 | 178 | 3.2 | 9.7 | 0.00 | 0.00 | 0.00 | 70 | 1016.3 |
| 20260505051532 | 16 | 0 | 1.6 | 8.0 | 0.00 | 0.00 | 0.00 | 70 | 1016.3 |
| 20260505051011 | 16 | 188 | 1.6 | 11.3 | 0.00 | 0.00 | 0.00 | 70 | 1016.3 |
| 20260505050513 | 16 | 0 | 1.6 | 11.3 | 0.00 | 0.00 | 0.00 | 70 | 1016.3 |
| 20260505041532 | 17 | 183 | 1.6 | 17.7 | 0.00 | 0.00 | 0.00 | 68 | 1016.2 |
| 20260505041012 | 17 | 186 | 4.8 | 17.7 | 0.00 | 0.00 | 0.00 | 68 | 1016.2 |
| 20260505040509 | 17 | 184 | 4.8 | 12.9 | 0.00 | 0.00 | 0.00 | 67 | 1016.2 |
| 20260505040031 | 17 | 165 | 4.8 | 12.9 | 0.00 | 0.00 | 0.00 | 67 | 1016.3 |
| 20260505035513 | 17 | 154 | 6.4 | 16.1 | 0.00 | 0.00 | 0.00 | 67 | 1016.3 |
| 20260505035009 | 17 | 201 | 4.8 | 16.1 | 0.00 | 0.00 | 0.00 | 67 | 1016.2 |
| 20260505034535 | 17 | 173 | 4.8 | 16.1 | 0.00 | 0.00 | 0.00 | 67 | 1016.2 |
| 20260505034013 | 17 | 196 | 6.4 | 16.1 | 0.00 | 0.00 | 0.00 | 66 | 1016.1 |
| 20260505033512 | 17 | 163 | 6.4 | 14.5 | 0.00 | 0.00 | 0.00 | 66 | 1016.2 |
| 20260505033032 | 17 | 180 | 6.4 | 16.1 | 0.00 | 0.00 | 0.00 | 66 | 1016.1 |
| 20260505032514 | 17 | 183 | 4.8 | 19.3 | 0.00 | 0.00 | 0.00 | 66 | 1016.2 |
| 20260505032012 | 17 | 159 | 6.4 | 20.9 | 0.00 | 0.00 | 0.00 | 66 | 1016.1 |
| 20260505031530 | 18 | 150 | 8.0 | 20.9 | 0.00 | 0.00 | 0.00 | 65 | 1016.1 |
| 20260505031011 | 18 | 44 | 4.8 | 17.7 | 0.00 | 0.00 | 0.00 | 65 | 1016.1 |
| 20260505030513 | 18 | 168 | 4.8 | 17.7 | 0.00 | 0.00 | 0.00 | 65 | 1016.2 |
| 20260505030044 | 18 | 192 | 6.4 | 17.7 | 0.00 | 0.00 | 0.00 | 65 | 1016.2 |
| 20260505025515 | 18 | 188 | 8.0 | 24.1 | 0.00 | 0.00 | 0.00 | 65 | 1016.1 |
| 20260505025009 | 18 | 200 | 8.0 | 24.1 | 0.00 | 0.00 | 0.00 | 64 | 1016.1 |
| 20260505024531 | 18 | 196 | 6.4 | 19.3 | 0.00 | 0.00 | 0.00 | 64 | 1016.0 |
| 20260505024011 | 18 | 101 | 8.0 | 19.3 | 0.00 | 0.00 | 0.00 | 64 | 1016.1 |
| 20260505023512 | 18 | 166 | 6.4 | 22.5 | 0.00 | 0.00 | 0.00 | 64 | 1016.0 |
| 20260505023039 | 18 | 185 | 9.7 | 22.5 | 0.00 | 0.00 | 0.00 | 64 | 1016.0 |
| 20260505022513 | 19 | 172 | 6.4 | 20.9 | 0.00 | 0.00 | 0.00 | 63 | 1016.0 |
| 20260505022014 | 19 | 172 | 6.4 | 30.6 | 0.00 | 0.00 | 0.00 | 63 | 1015.9 |
| 20260505021531 | 19 | 188 | 9.7 | 30.6 | 0.00 | 0.00 | 0.00 | 63 | 1016.0 |
| 20260505021010 | 19 | 153 | 6.4 | 17.7 | 0.00 | 0.00 | 0.00 | 63 | 1015.8 |
| 20260505020511 | 19 | 186 | 8.0 | 17.7 | 0.00 | 0.00 | 0.00 | 62 | 1015.9 |
| 20260505020030 | 19 | 176 | 8.0 | 19.3 | 0.00 | 0.00 | 0.00 | 61 | 1015.8 |
| 20260505015513 | 20 | 178 | 9.7 | 22.5 | 0.00 | 0.00 | 0.00 | 60 | 1015.8 |
| 20260505015017 | 20 | 260 | 6.4 | 22.5 | 0.00 | 0.00 | 0.00 | 59 | 1015.8 |
| 20260505014536 | 20 | 165 | 8.0 | 19.3 | 0.00 | 0.00 | 0.00 | 57 | 1015.7 |
| 20260505014011 | 20 | 169 | 6.4 | 19.3 | 0.00 | 0.00 | 0.00 | 55 | 1015.7 |
| 20260505013511 | 20 | 150 | 6.4 | 17.7 | 0.00 | 0.00 | 0.00 | 53 | 1015.6 |
| 20260505013038 | 20 | 186 | 6.4 | 19.3 | 0.00 | 0.00 | 0.00 | 52 | 1015.5 |
| 20260505012513 | 20 | 186 | 8.0 | 19.3 | 0.00 | 0.00 | 0.00 | 49 | 1015.3 |
| 20260505012013 | 20 | 182 | 4.8 | 12.9 | 0.00 | 0.00 | 0.00 | 48 | 1015.2 |
| 20260505011532 | 20 | 170 | 4.8 | 12.9 | 0.00 | 0.00 | 0.00 | 48 | 1015.0 |
| 20260505011010 | 20 | 167 | 3.2 | 12.9 | 0.00 | 0.00 | 0.00 | 48 | 1015.0 |
| 20260505010509 | 20 | 177 | 1.6 | 12.9 | 0.00 | 0.00 | 0.00 | 48 | 1014.9 |
| 20260505010029 | 21 | 171 | 3.2 | 16.1 | 0.00 | 0.00 | 0.00 | 47 | 1014.8 |
| 20260505005516 | 21 | 185 | 4.8 | 16.1 | 0.00 | 0.00 | 0.00 | 47 | 1014.7 |
| 20260505005013 | 21 | 179 | 4.8 | 14.5 | 0.00 | 0.00 | 0.00 | 46 | 1014.6 |
| 20260505004553 | 21 | 168 | 4.8 | 14.5 | 0.00 | 0.00 | 0.00 | 46 | 1014.5 |
| 20260505004011 | 21 | 167 | 4.8 | 16.1 | 0.00 | 0.00 | 0.00 | 46 | 1014.5 |
| 20260505003512 | 21 | 194 | 4.8 | 16.1 | 0.00 | 0.00 | 0.00 | 46 | 1014.5 |
| 20260505003032 | 21 | 167 | 3.2 | 12.9 | 0.00 | 0.00 | 0.00 | 45 | 1014.5 |
| 20260505002511 | 21 | 152 | 4.8 | 11.3 | 0.00 | 0.00 | 0.00 | 45 | 1014.4 |
| 20260505002009 | 21 | 173 | 3.2 | 9.7 | 0.00 | 0.00 | 0.00 | 44 | 1014.4 |
| 20260505001535 | 22 | 202 | 3.2 | 9.7 | 0.00 | 0.00 | 0.00 | 44 | 1014.4 |
| 20260505001010 | 22 | 0 | 1.6 | 11.3 | 0.00 | 0.00 | 0.00 | 44 | 1014.4 |
| 20260505000516 | 22 | 194 | 3.2 | 11.3 | 0.00 | 0.00 | 0.00 | 43 | 1014.4 |
| 20260505000036 | 22 | 178 | 4.8 | 12.9 | 0.00 | 0.00 | 0.00 | 43 | 1014.4 |
| 20260504235510 | 22 | 191 | 3.2 | 12.9 | 0.00 | 0.00 | 0.00 | 42 | 1014.3 |
| 20260504235010 | 22 | 161 | 3.2 | 11.3 | 0.00 | 0.00 | 0.00 | 42 | 1014.4 |
| 20260504234531 | 22 | 184 | 3.2 | 17.7 | 0.00 | 0.00 | 0.00 | 42 | 1014.2 |
| 20260504234009 | 23 | 161 | 4.8 | 17.7 | 0.00 | 0.00 | 0.00 | 42 | 1014.0 |
| 20260504233511 | 23 | 211 | 6.4 | 17.7 | 0.00 | 0.00 | 0.00 | 41 | 1014.0 |
| 20260504233032 | 23 | 182 | 3.2 | 12.9 | 0.00 | 0.00 | 0.00 | 41 | 1013.9 |
| 20260504232512 | 23 | 194 | 3.2 | 16.1 | 0.00 | 0.00 | 0.00 | 40 | 1014.0 |
| 20260504232015 | 23 | 191 | 1.6 | 16.1 | 0.00 | 0.00 | 0.00 | 41 | 1014.0 |
| 20260504231530 | 23 | 182 | 1.6 | 17.7 | 0.00 | 0.00 | 0.00 | 40 | 1013.9 |
| 20260504231011 | 23 | 188 | 6.4 | 17.7 | 0.00 | 0.00 | 0.00 | 40 | 1013.9 |
| 20260504230513 | 23 | 188 | 6.4 | 16.1 | 0.00 | 0.00 | 0.00 | 39 | 1013.8 |
| 20260504230030 | 24 | 198 | 1.6 | 17.7 | 0.00 | 0.00 | 0.00 | 39 | 1013.7 |
| 20260504225511 | 24 | 148 | 6.4 | 17.7 | 0.00 | 0.00 | 0.00 | 38 | 1013.8 |
| 20260504225011 | 24 | 170 | 4.8 | 17.7 | 0.00 | 0.00 | 0.00 | 37 | 1013.8 |
| 20260504224534 | 24 | 199 | 6.4 | 17.7 | 0.00 | 0.00 | 0.00 | 37 | 1013.7 |
| 20260504224011 | 24 | 175 | 0.0 | 11.3 | 0.00 | 0.00 | 0.00 | 38 | 1013.7 |
| 20260504223512 | 24 | 211 | 4.8 | 22.5 | 0.00 | 0.00 | 0.00 | 37 | 1013.7 |
| 20260504223031 | 25 | 156 | 6.4 | 22.5 | 0.00 | 0.00 | 0.00 | 37 | 1013.8 |
| 20260504222509 | 25 | 196 | 4.8 | 20.9 | 0.00 | 0.00 | 0.00 | 37 | 1013.7 |
| 20260504222017 | 25 | 218 | 1.6 | 6.4 | 0.00 | 0.00 | 0.00 | 37 | 1013.7 |
| 20260504221537 | 25 | 0 | 1.6 | 9.7 | 0.00 | 0.00 | 0.00 | 40 | 1013.6 |
| 20260504221010 | 25 | 0 | 0.0 | 12.9 | 0.00 | 0.00 | 0.00 | 39 | 1013.7 |
| 20260504220515 | 25 | 0 | 4.8 | 12.9 | 0.00 | 0.00 | 0.00 | 35 | 1013.8 |
| 20260504220030 | 25 | 156 | 3.2 | 11.3 | 0.00 | 0.00 | 0.00 | 35 | 1013.7 |
| 20260504215510 | 25 | 185 | 1.6 | 6.4 | 0.00 | 0.00 | 0.00 | 37 | 1013.8 |
| 20260504215015 | 25 | 0 | 0.0 | 6.4 | 0.00 | 0.00 | 0.00 | 36 | 1013.8 |
| 20260504214531 | 25 | 284 | 0.0 | 11.3 | 0.00 | 0.00 | 0.00 | 36 | 1013.9 |
| 20260504214012 | 25 | 0 | 0.0 | 11.3 | 0.00 | 0.00 | 0.00 | 35 | 1013.9 |
| 20260504213514 | 25 | 0 | 0.0 | 12.9 | 0.00 | 0.00 | 0.00 | 33 | 1013.9 |
| 20260504213038 | 25 | 126 | 3.2 | 12.9 | 0.00 | 0.00 | 0.00 | 33 | 1014.1 |
| 20260504212515 | 25 | 186 | 1.6 | 12.9 | 0.00 | 0.00 | 0.00 | 33 | 1013.9 |
| 20260504212013 | 26 | 208 | 3.2 | 12.9 | 0.00 | 0.00 | 0.00 | 33 | 1014.0 |
| 20260504211535 | 26 | 0 | 1.6 | 12.9 | 0.00 | 0.00 | 0.00 | 33 | 1013.9 |
| 20260504211010 | 26 | 234 | 4.8 | 14.5 | 0.00 | 0.00 | 0.00 | 32 | 1013.9 |
| 20260504210512 | 26 | 355 | 3.2 | 22.5 | 0.00 | 0.00 | 0.00 | 32 | 1014.0 |
| 20260504210030 | 26 | 173 | 6.4 | 22.5 | 0.00 | 0.00 | 0.00 | 30 | 1014.1 |
| 20260504205510 | 26 | 291 | 4.8 | 12.9 | 0.00 | 0.00 | 0.00 | 33 | 1014.0 |
| 20260504205015 | 26 | 0 | 0.0 | 12.9 | 0.00 | 0.00 | 0.00 | 33 | 1014.1 |
| 20260504204535 | 26 | 0 | 1.6 | 9.7 | 0.00 | 0.00 | 0.00 | 33 | 1014.1 |
| 20260504204013 | 26 | 0 | 1.6 | 14.5 | 0.00 | 0.00 | 0.00 | 33 | 1014.2 |
| 20260504203512 | 26 | 0 | 3.2 | 14.5 | 0.00 | 0.00 | 0.00 | 33 | 1014.2 |
| 20260504203033 | 26 | 256 | 0.0 | 14.5 | 0.00 | 0.00 | 0.00 | 32 | 1014.2 |
| 20260504202512 | 26 | 224 | 4.8 | 14.5 | 0.00 | 0.00 | 0.00 | 33 | 1014.2 |
| 20260504202013 | 26 | 171 | 1.6 | 11.3 | 0.00 | 0.00 | 0.00 | 32 | 1014.3 |
| 20260504201530 | 26 | 192 | 4.8 | 11.3 | 0.00 | 0.00 | 0.00 | 32 | 1014.4 |
| 20260504201011 | 26 | 279 | 0.0 | 16.1 | 0.00 | 0.00 | 0.00 | 33 | 1014.4 |
| 20260504200513 | 26 | 0 | 3.2 | 16.1 | 0.00 | 0.00 | 0.00 | 33 | 1014.6 |
| 20260504200030 | 26 | 146 | 4.8 | 14.5 | 0.00 | 0.00 | 0.00 | 34 | 1014.6 |
| 20260504195510 | 26 | 0 | 1.6 | 11.3 | 0.00 | 0.00 | 0.00 | 34 | 1014.6 |
| 20260504195015 | 26 | 173 | 1.6 | 11.3 | 0.00 | 0.00 | 0.00 | 33 | 1014.6 |
| 20260504194530 | 26 | 233 | 3.2 | 14.5 | 0.00 | 0.00 | 0.00 | 33 | 1014.7 |
| 20260504194010 | 26 | 0 | 1.6 | 14.5 | 0.00 | 0.00 | 0.00 | 36 | 1014.7 |
| 20260504193510 | 26 | 175 | 1.6 | 12.9 | 0.00 | 0.00 | 0.00 | 35 | 1014.7 |
| 20260504193030 | 26 | 248 | 3.2 | 12.9 | 0.00 | 0.00 | 0.00 | 35 | 1014.7 |
| 20260504192513 | 26 | 151 | 4.8 | 12.9 | 0.00 | 0.00 | 0.00 | 33 | 1014.9 |
| 20260504192018 | 26 | 290 | 3.2 | 14.5 | 0.00 | 0.00 | 0.00 | 36 | 1015.0 |
| 20260504191557 | 26 | 166 | 4.8 | 14.5 | 0.00 | 0.00 | 0.00 | 33 | 1014.9 |
| 20260504191009 | 26 | 148 | 0.0 | 11.3 | 0.00 | 0.00 | 0.00 | 35 | 1015.0 |
| 20260504190511 | 26 | 0 | 0.0 | 11.3 | 0.00 | 0.00 | 0.00 | 35 | 1015.1 |
| 20260504190029 | 25 | 165 | 1.6 | 8.0 | 0.00 | 0.00 | 0.00 | 36 | 1015.3 |
| 20260504185512 | 26 | 202 | 0.0 | 14.5 | 0.00 | 0.00 | 0.00 | 35 | 1015.2 |
| 20260504185009 | 26 | 209 | 4.8 | 14.5 | 0.00 | 0.00 | 0.00 | 34 | 1015.4 |
| 20260504184541 | 26 | 232 | 0.0 | 12.9 | 0.00 | 0.00 | 0.00 | 36 | 1015.4 |
| 20260504184013 | 26 | 0 | 3.2 | 16.1 | 0.00 | 0.00 | 0.00 | 36 | 1015.3 |
| 20260504183514 | 25 | 153 | 3.2 | 16.1 | 0.00 | 0.00 | 0.00 | 35 | 1015.3 |
| 20260504183032 | 25 | 183 | 6.4 | 14.5 | 0.00 | 0.00 | 0.00 | 35 | 1015.3 |
| 20260504182514 | 25 | 111 | 3.2 | 12.9 | 0.00 | 0.00 | 0.00 | 35 | 1015.4 |
| 20260504182015 | 26 | 173 | 3.2 | 11.3 | 0.00 | 0.00 | 0.00 | 35 | 1015.4 |
| 20260504181533 | 26 | 210 | 0.0 | 6.4 | 0.00 | 0.00 | 0.00 | 37 | 1015.5 |
| 20260504181010 | 26 | 117 | 1.6 | 16.1 | 0.00 | 0.00 | 0.00 | 35 | 1015.4 |
| 20260504180515 | 26 | 309 | 0.0 | 16.1 | 0.00 | 0.00 | 0.00 | 35 | 1015.5 |
| 20260504180035 | 25 | 22 | 3.2 | 16.1 | 0.00 | 0.00 | 0.00 | 35 | 1015.6 |
| 20260504175513 | 25 | 0 | 1.6 | 14.5 | 0.00 | 0.00 | 0.00 | 35 | 1015.6 |
| 20260504175019 | 25 | 0 | 4.8 | 14.5 | 0.00 | 0.00 | 0.00 | 36 | 1015.6 |
| 20260504174530 | 25 | 0 | 1.6 | 9.7 | 0.00 | 0.00 | 0.00 | 36 | 1015.7 |
| 20260504174009 | 26 | 181 | 0.0 | 4.8 | 0.00 | 0.00 | 0.00 | 36 | 1015.8 |
| 20260504173508 | 25 | 256 | 0.0 | 8.0 | 0.00 | 0.00 | 0.00 | 37 | 1016.0 |
| 20260504173030 | 25 | 0 | 0.0 | 11.3 | 0.00 | 0.00 | 0.00 | 37 | 1016.0 |
| 20260504172508 | 25 | 285 | 1.6 | 11.3 | 0.00 | 0.00 | 0.00 | 37 | 1016.1 |
| 20260504172016 | 25 | 245 | 1.6 | 9.7 | 0.00 | 0.00 | 0.00 | 36 | 1016.2 |
| 20260504171530 | 25 | 0 | 3.2 | 12.9 | 0.00 | 0.00 | 0.00 | 39 | 1016.2 |
| 20260504171011 | 24 | 96 | 1.6 | 12.9 | 0.00 | 0.00 | 0.00 | 38 | 1016.2 |
| 20260504170515 | 25 | 126 | 1.6 | 8.0 | 0.00 | 0.00 | 0.00 | 39 | 1016.3 |
| 20260504151009 | 21 | 0 | 0.0 | 9.7 | 0.00 | 0.00 | 0.00 | 53 | 1017.4 |
| 20260504150516 | 21 | 145 | 1.6 | 9.7 | 0.00 | 0.00 | 0.00 | 52 | 1017.4 |